Terminal Aerodrome Forecast
Issued by NWS Mt. Holly, NJ

Home | Current Version | Previous Version | Text Only | Print | Product List | Glossary On
Versions: 1 2 3 4 5 6 7 8 9 10 11 12 13 14 15 16 17 18 19 20 21 22 23 24 25 26 27 28 29 30 31 32 33 34 35
000
FTAK31 PANC 281457 AAA
TAFABE
TAF AMD
PABE 281457Z 2815/2912 18007KT 3/4SM BR OVC004
      TEMPO 2815/2817 1/2SM FG OVC002
     FM281800 18007KT P6SM FEW005 BKN050=

USA.gov is the U.S. government's official web portal to all federal, state and local government web resources and services.